Location: Bonac
(42.8765°N, 0.9753°E)
Time: 10:27:32
(UTC+00:00)

DNEPR-1 R/B - Pass Details

Date: 12 January 2026
Orbit: 586 x 1327 km, 64.6° (Epoch: 11 February)

Event Time Altitude Azimuth Distance (km) Brightness Sun altitude
Rises 18:03:17 0° 194° (SSW) 3,072 7.6 -14.3°
Reaches altitude 10° 18:05:50 10° 187° (S) 2,072 6.5 -14.7°
Maximum altitude 18:10:05 39° 118° (ESE) 920 4.1 -15.5°
Enters shadow 18:11:40 28° 73° (ENE) 1,128 4.3 -15.7°
